KAC615 OKKK-OBBI

Flight info

Callsign KAC615
Flight time 0h 47m
Altitude 27000
Route BOXIK B416 IMDOX P975 LONOS L703 KOBOK
Aircraft A339/H-SADE1E2E3GHIJ3J5M1P2RWXY/LB2D1

Departure

Time 2026-04-27 11:00
Airport Kuwait International Airport (OKKK)

Arrival

Time 2026-04-27 11:47
Airport Bahrain International Airport (OBBI)
Time Latitude Longitude Altitude Speed Heading
2026-04-27 10:17 29.24971 47.96056 143 ft 0 kts 59°
2026-04-27 10:46 29.24967 47.96048 144 ft 2 kts 59°
2026-04-27 10:46 29.24960 47.96034 144 ft 2 kts 59°
2026-04-27 10:47 29.24952 47.96019 144 ft 2 kts 59°
2026-04-27 10:47 29.24944 47.96004 144 ft 2 kts 59°
2026-04-27 10:47 29.24936 47.95989 144 ft 2 kts 59°
2026-04-27 10:47 29.24929 47.95974 144 ft 2 kts 59°
2026-04-27 10:48 29.24922 47.95958 144 ft 2 kts 84°
2026-04-27 10:48 29.24923 47.95941 144 ft 2 kts 115°
2026-04-27 10:48 29.24932 47.95927 144 ft 2 kts 143°
2026-04-27 10:48 29.24946 47.95919 144 ft 2 kts 161°
2026-04-27 10:49 29.24960 47.95913 144 ft 2 kts 157°
2026-04-27 10:49 29.24974 47.95906 144 ft 2 kts 156°
2026-04-27 10:49 29.24988 47.95899 144 ft 2 kts 157°
2026-04-27 10:49 29.25002 47.95892 144 ft 2 kts 157°
2026-04-27 10:50 29.25016 47.95885 144 ft 2 kts 157°
2026-04-27 10:50 29.25030 47.95879 144 ft 2 kts 157°
2026-04-27 10:50 29.25044 47.95872 144 ft 2 kts 157°
2026-04-27 10:50 29.25052 47.95868 144 ft 0 kts 157°
2026-04-27 10:54 29.25041 47.95874 144 ft 3 kts 156°
2026-04-27 10:54 29.25009 47.95890 144 ft 6 kts 155°
2026-04-27 10:54 29.24957 47.95918 144 ft 9 kts 154°
2026-04-27 10:54 29.24893 47.95952 144 ft 10 kts 155°
2026-04-27 10:55 29.24825 47.95988 144 ft 10 kts 154°
2026-04-27 10:55 29.24759 47.96024 145 ft 10 kts 155°
2026-04-27 10:55 29.24694 47.96057 145 ft 10 kts 155°
2026-04-27 10:55 29.24628 47.96093 146 ft 10 kts 155°
2026-04-27 10:56 29.24559 47.96130 146 ft 10 kts 155°
2026-04-27 10:56 29.24488 47.96167 147 ft 11 kts 155°
2026-04-27 10:56 29.24413 47.96207 147 ft 12 kts 155°
2026-04-27 10:56 29.24334 47.96251 147 ft 12 kts 154°
2026-04-27 10:57 29.24261 47.96289 148 ft 9 kts 155°
2026-04-27 10:57 29.24201 47.96320 149 ft 8 kts 155°
2026-04-27 10:57 29.24157 47.96344 150 ft 5 kts 156°
2026-04-27 10:57 29.24126 47.96347 150 ft 4 kts 193°
2026-04-27 10:58 29.24095 47.96319 150 ft 6 kts 236°
2026-04-27 10:58 29.24065 47.96263 149 ft 9 kts 239°
2026-04-27 10:58 29.24041 47.96204 149 ft 6 kts 243°
2026-04-27 10:58 29.24012 47.96184 150 ft 4 kts 181°
2026-04-27 10:59 29.23976 47.96193 150 ft 6 kts 162°
2026-04-27 10:59 29.23930 47.96216 150 ft 7 kts 154°
2026-04-27 10:59 29.23859 47.96254 150 ft 27 kts 155°
2026-04-27 11:00 29.22750 47.96845 162 ft 141 kts 155°
2026-04-27 11:00 29.21772 47.97338 523 ft 152 kts 154°
2026-04-27 11:00 29.20845 47.97826 1095 ft 148 kts 151°
2026-04-27 11:00 29.20034 47.98595 1541 ft 153 kts 121°
2026-04-27 11:01 29.19541 47.99689 1984 ft 156 kts 116°
2026-04-27 11:01 29.19051 48.00883 2211 ft 168 kts 116°
2026-04-27 11:01 29.18529 48.02136 2443 ft 180 kts 117°
2026-04-27 11:01 29.17958 48.03483 2679 ft 194 kts 117°
2026-04-27 11:02 29.17354 48.04890 3044 ft 200 kts 118°
2026-04-27 11:02 29.16726 48.06349 3522 ft 201 kts 118°
2026-04-27 11:02 29.16111 48.07776 3998 ft 202 kts 118°
2026-04-27 11:02 29.15491 48.09237 4461 ft 203 kts 113°
2026-04-27 11:03 29.15126 48.10784 4914 ft 206 kts 99°
2026-04-27 11:03 29.15060 48.12457 5393 ft 208 kts 92°
2026-04-27 11:03 29.15068 48.14125 5874 ft 209 kts 91°
2026-04-27 11:03 29.15085 48.15831 6359 ft 210 kts 91°
2026-04-27 11:04 29.15097 48.17501 6832 ft 211 kts 91°
2026-04-27 11:04 29.15104 48.19168 7308 ft 212 kts 91°
2026-04-27 11:04 29.15109 48.20893 7809 ft 212 kts 91°
2026-04-27 11:04 29.15112 48.22564 8279 ft 212 kts 91°
2026-04-27 11:05 29.15018 48.24238 8717 ft 212 kts 110°
2026-04-27 11:05 29.14296 48.25749 8991 ft 220 kts 130°
2026-04-27 11:05 29.13310 48.27130 9241 ft 232 kts 133°
2026-04-27 11:05 29.12223 48.28637 9492 ft 246 kts 132°
2026-04-27 11:06 29.11121 48.30241 9772 ft 262 kts 130°
2026-04-27 11:06 29.09981 48.31976 10058 ft 277 kts 129°
2026-04-27 11:06 29.08787 48.33841 10358 ft 294 kts 128°
2026-04-27 11:06 29.07533 48.35828 10642 ft 311 kts 128°
2026-04-27 11:07 29.06235 48.37899 10935 ft 327 kts 128°
2026-04-27 11:07 29.04877 48.40073 11231 ft 344 kts 128°
2026-04-27 11:07 29.03431 48.42391 11524 ft 361 kts 128°
2026-04-27 11:07 29.01942 48.44778 11822 ft 377 kts 128°
2026-04-27 11:08 29.00358 48.47316 12122 ft 393 kts 128°
2026-04-27 11:08 28.98729 48.49928 12509 ft 405 kts 128°
2026-04-27 11:08 28.97079 48.52577 13114 ft 410 kts 128°
2026-04-27 11:08 28.95399 48.55273 13793 ft 414 kts 128°
2026-04-27 11:09 28.93690 48.58012 14455 ft 417 kts 128°
2026-04-27 11:09 28.92008 48.60704 15082 ft 421 kts 128°
2026-04-27 11:09 28.90291 48.63453 15742 ft 425 kts 128°
2026-04-27 11:09 28.88555 48.66229 16396 ft 428 kts 129°
2026-04-27 11:10 28.86812 48.69018 16999 ft 432 kts 129°
2026-04-27 11:10 28.85051 48.71830 17612 ft 435 kts 129°
2026-04-27 11:10 28.83254 48.74698 18241 ft 438 kts 129°
2026-04-27 11:10 28.81456 48.77581 18834 ft 443 kts 128°
2026-04-27 11:11 28.79735 48.80608 19366 ft 450 kts 125°
2026-04-27 11:11 28.78160 48.83722 19892 ft 455 kts 123°
2026-04-27 11:11 28.76614 48.86874 20408 ft 460 kts 123°
2026-04-27 11:11 28.75017 48.90144 20891 ft 465 kts 123°
2026-04-27 11:12 28.73426 48.93402 21365 ft 469 kts 123°
2026-04-27 11:12 28.71815 48.96688 21872 ft 473 kts 123°
2026-04-27 11:12 28.70199 48.99984 22317 ft 477 kts 123°
2026-04-27 11:12 28.68546 49.03348 22763 ft 481 kts 123°
2026-04-27 11:13 28.66885 49.06727 23201 ft 485 kts 123°
2026-04-27 11:13 28.65195 49.10171 23612 ft 489 kts 123°
2026-04-27 11:13 28.63500 49.13621 24038 ft 493 kts 123°
2026-04-27 11:13 28.61795 49.17083 24441 ft 497 kts 124°
2026-04-27 11:14 28.60062 49.20514 24803 ft 499 kts 127°
2026-04-27 11:14 28.57890 49.23597 25171 ft 492 kts 140°
2026-04-27 11:14 28.55245 49.26133 25585 ft 487 kts 150°
2026-04-27 11:14 28.52414 49.28280 25956 ft 486 kts 154°
2026-04-27 11:15 28.49535 49.30455 26283 ft 493 kts 151°
2026-04-27 11:15 28.46777 49.32835 26612 ft 501 kts 147°
2026-04-27 11:15 28.44073 49.35374 26808 ft 505 kts 146°
2026-04-27 11:15 28.41399 49.37960 26800 ft 505 kts 146°
2026-04-27 11:16 28.38702 49.40622 26810 ft 506 kts 145°
2026-04-27 11:16 28.36035 49.43272 26807 ft 505 kts 145°
2026-04-27 11:16 28.33378 49.45916 26814 ft 505 kts 145°
2026-04-27 11:16 28.30704 49.48569 26807 ft 505 kts 145°
2026-04-27 11:17 28.28032 49.51209 26812 ft 506 kts 145°
2026-04-27 11:17 28.25363 49.53839 26814 ft 505 kts 145°
2026-04-27 11:17 28.22658 49.56493 26807 ft 506 kts 146°
2026-04-27 11:17 28.19901 49.58982 26807 ft 503 kts 149°
2026-04-27 11:18 28.17120 49.61381 26811 ft 504 kts 149°
2026-04-27 11:18 28.14281 49.63820 26810 ft 504 kts 149°
2026-04-27 11:18 28.11465 49.66238 26811 ft 503 kts 150°
2026-04-27 11:18 28.08643 49.68661 26812 ft 503 kts 150°
2026-04-27 11:19 28.05853 49.71057 26812 ft 504 kts 150°
2026-04-27 11:19 28.02976 49.73384 26812 ft 500 kts 153°
2026-04-27 11:19 28.00057 49.75662 26811 ft 500 kts 153°
2026-04-27 11:19 27.97160 49.77907 26811 ft 501 kts 153°
2026-04-27 11:20 27.94292 49.80128 26814 ft 500 kts 153°
2026-04-27 11:20 27.91404 49.82368 26818 ft 500 kts 153°
2026-04-27 11:20 27.88452 49.84660 26825 ft 502 kts 153°
2026-04-27 11:20 27.85574 49.86895 26829 ft 502 kts 153°
2026-04-27 11:21 27.82655 49.89162 26830 ft 501 kts 153°
2026-04-27 11:21 27.79742 49.91418 26833 ft 501 kts 153°
2026-04-27 11:21 27.76835 49.93662 26833 ft 502 kts 153°
2026-04-27 11:21 27.73901 49.95925 26833 ft 502 kts 153°
2026-04-27 11:22 27.70972 49.98186 26831 ft 502 kts 153°
2026-04-27 11:22 27.68054 50.00440 26830 ft 502 kts 152°
2026-04-27 11:22 27.65180 50.02660 26829 ft 502 kts 152°
2026-04-27 11:22 27.62249 50.04922 26766 ft 503 kts 152°
2026-04-27 11:23 27.59317 50.07184 26263 ft 502 kts 152°
2026-04-27 11:23 27.56420 50.09418 25747 ft 498 kts 152°
2026-04-27 11:23 27.53574 50.11614 25269 ft 493 kts 152°
2026-04-27 11:23 27.50721 50.13815 24795 ft 488 kts 152°
2026-04-27 11:24 27.47912 50.15978 24332 ft 484 kts 152°
2026-04-27 11:24 27.45152 50.18100 23801 ft 481 kts 152°
2026-04-27 11:24 27.42415 50.20251 23341 ft 477 kts 150°
2026-04-27 11:24 27.39732 50.22428 22880 ft 473 kts 150°
2026-04-27 11:25 27.37059 50.24614 22388 ft 470 kts 150°
2026-04-27 11:25 27.34395 50.26787 21832 ft 469 kts 149°
2026-04-27 11:25 27.31749 50.28937 21376 ft 464 kts 149°
2026-04-27 11:25 27.29131 50.31061 21021 ft 458 kts 149°
2026-04-27 11:26 27.26530 50.33166 20700 ft 457 kts 149°
2026-04-27 11:26 27.23911 50.35279 20382 ft 454 kts 149°
2026-04-27 11:26 27.21300 50.37382 20056 ft 452 kts 148°
2026-04-27 11:26 27.18760 50.39430 19674 ft 449 kts 148°
2026-04-27 11:27 27.16180 50.41512 19255 ft 446 kts 148°
2026-04-27 11:27 27.13633 50.43569 18791 ft 443 kts 148°
2026-04-27 11:27 27.11120 50.45596 18294 ft 440 kts 147°
2026-04-27 11:27 27.08647 50.47590 17741 ft 439 kts 147°
2026-04-27 11:28 27.06168 50.49588 17151 ft 438 kts 147°
2026-04-27 11:28 27.03676 50.51596 16634 ft 434 kts 147°
2026-04-27 11:28 27.01214 50.53579 16234 ft 428 kts 147°
2026-04-27 11:28 26.98669 50.55345 15804 ft 418 kts 158°
2026-04-27 11:29 26.95878 50.56358 15372 ft 408 kts 172°
2026-04-27 11:29 26.93090 50.56672 14925 ft 401 kts 180°
2026-04-27 11:29 26.90228 50.56788 14407 ft 399 kts 181°
2026-04-27 11:29 26.87450 50.56886 13903 ft 397 kts 181°
2026-04-27 11:30 26.84659 50.56992 13337 ft 397 kts 181°
2026-04-27 11:30 26.81915 50.57104 12843 ft 395 kts 180°
2026-04-27 11:30 26.79123 50.57223 12414 ft 391 kts 180°
2026-04-27 11:30 26.76402 50.57344 11964 ft 388 kts 180°
2026-04-27 11:31 26.73696 50.57466 11564 ft 385 kts 180°
2026-04-27 11:31 26.70991 50.57589 11176 ft 381 kts 180°
2026-04-27 11:31 26.68341 50.57711 10798 ft 377 kts 180°
2026-04-27 11:31 26.65723 50.57830 10501 ft 370 kts 180°
2026-04-27 11:32 26.63130 50.57949 10434 ft 357 kts 180°
2026-04-27 11:32 26.60682 50.58064 10346 ft 345 kts 180°
2026-04-27 11:32 26.58275 50.58173 10272 ft 334 kts 180°
2026-04-27 11:32 26.55939 50.58279 10193 ft 322 kts 180°
2026-04-27 11:33 26.53716 50.58386 10109 ft 312 kts 178°
2026-04-27 11:33 26.51642 50.58993 10028 ft 308 kts 153°
2026-04-27 11:33 26.50012 50.60477 9973 ft 301 kts 128°
2026-04-27 11:33 26.49031 50.62564 9789 ft 300 kts 104°
2026-04-27 11:34 26.48765 50.64896 9498 ft 299 kts 93°
2026-04-27 11:34 26.48412 50.67234 9194 ft 299 kts 110°
2026-04-27 11:34 26.47488 50.69313 8919 ft 298 kts 120°
2026-04-27 11:34 26.46423 50.71321 8677 ft 295 kts 122°
2026-04-27 11:35 26.45218 50.73146 8425 ft 293 kts 142°
2026-04-27 11:35 26.43414 50.74170 8138 ft 286 kts 172°
2026-04-27 11:35 26.41465 50.74128 7848 ft 277 kts 199°
2026-04-27 11:35 26.39753 50.73145 7558 ft 270 kts 225°
2026-04-27 11:36 26.38648 50.71513 7282 ft 263 kts 250°
2026-04-27 11:36 26.38269 50.69519 6962 ft 262 kts 273°
2026-04-27 11:36 26.38689 50.67505 6691 ft 264 kts 296°
2026-04-27 11:36 26.39654 50.65758 6413 ft 263 kts 302°
2026-04-27 11:37 26.40660 50.64039 6179 ft 262 kts 302°
2026-04-27 11:37 26.41670 50.62302 5895 ft 261 kts 302°
2026-04-27 11:37 26.42662 50.60583 5637 ft 261 kts 302°
2026-04-27 11:37 26.43662 50.58845 5452 ft 258 kts 302°
2026-04-27 11:38 26.44632 50.57155 5307 ft 254 kts 302°
2026-04-27 11:38 26.45576 50.55509 5190 ft 249 kts 302°
2026-04-27 11:38 26.46511 50.53878 5119 ft 240 kts 302°
2026-04-27 11:38 26.47414 50.52333 5052 ft 232 kts 303°
2026-04-27 11:39 26.48333 50.50802 4698 ft 240 kts 303°
2026-04-27 11:39 26.49290 50.49205 4278 ft 249 kts 303°
2026-04-27 11:39 26.50261 50.47580 3820 ft 254 kts 303°
2026-04-27 11:39 26.51212 50.45905 3380 ft 252 kts 294°
2026-04-27 11:40 26.51548 50.44035 2942 ft 250 kts 264°
2026-04-27 11:40 26.50960 50.42197 2526 ft 254 kts 234°
2026-04-27 11:40 26.49608 50.40902 2137 ft 261 kts 209°
2026-04-27 11:40 26.47978 50.40006 2011 ft 251 kts 204°
2026-04-27 11:41 26.46410 50.39227 2004 ft 241 kts 203°
2026-04-27 11:41 26.44808 50.38682 1958 ft 229 kts 176°
2026-04-27 11:41 26.43362 50.39237 1956 ft 211 kts 138°
2026-04-27 11:41 26.42390 50.40379 1967 ft 197 kts 127°
2026-04-27 11:42 26.41517 50.41592 1987 ft 195 kts 127°
2026-04-27 11:42 26.40633 50.42781 1988 ft 196 kts 129°
2026-04-27 11:42 26.39749 50.43913 1970 ft 189 kts 130°
2026-04-27 11:42 26.38876 50.44999 1971 ft 183 kts 130°
2026-04-27 11:43 26.38011 50.46061 1974 ft 183 kts 132°
2026-04-27 11:43 26.37055 50.47010 1993 ft 184 kts 137°
2026-04-27 11:43 26.36121 50.48027 1993 ft 183 kts 129°
2026-04-27 11:43 26.35324 50.49138 1972 ft 183 kts 124°
2026-04-27 11:44 26.34605 50.50319 1960 ft 182 kts 121°
2026-04-27 11:44 26.33930 50.51493 1959 ft 171 kts 120°
2026-04-27 11:44 26.33313 50.52574 1851 ft 158 kts 120°
2026-04-27 11:44 26.32730 50.53591 1648 ft 152 kts 120°
2026-04-27 11:45 26.32156 50.54586 1454 ft 150 kts 120°
2026-04-27 11:45 26.31584 50.55576 1273 ft 150 kts 120°
2026-04-27 11:45 26.31010 50.56568 1082 ft 148 kts 120°
2026-04-27 11:45 26.30445 50.57541 902 ft 148 kts 121°
2026-04-27 11:46 26.29878 50.58519 716 ft 149 kts 121°
2026-04-27 11:46 26.29320 50.59493 527 ft 147 kts 121°
2026-04-27 11:46 26.28765 50.60453 353 ft 147 kts 122°
2026-04-27 11:46 26.28213 50.61426 163 ft 146 kts 121°
2026-04-27 11:47 26.27661 50.62378 29 ft 144 kts 121°
2026-04-27 11:47 26.27198 50.63181 20 ft 81 kts 123°
2026-04-27 11:47 26.27001 50.63517 20 ft 42 kts 123°
2026-04-27 11:47 26.26886 50.63700 20 ft 15 kts 141°
2026-04-27 11:48 26.26806 50.63742 20 ft 12 kts 163°
2026-04-27 11:48 26.26734 50.63763 20 ft 11 kts 165°
2026-04-27 11:48 26.26656 50.63776 20 ft 10 kts 181°
2026-04-27 11:48 26.26590 50.63760 20 ft 6 kts 205°
2026-04-27 11:49 26.26584 50.63757 20 ft 0 kts 212°
2026-04-27 11:49 26.26570 50.63742 20 ft 4 kts 230°
2026-04-27 11:49 26.26565 50.63710 20 ft 4 kts 281°
2026-04-27 11:49 26.26585 50.63665 20 ft 7 kts 300°
2026-04-27 11:50 26.26616 50.63608 20 ft 10 kts 302°
2026-04-27 11:50 26.26655 50.63540 20 ft 9 kts 304°
2026-04-27 11:50 26.26691 50.63481 20 ft 9 kts 303°
2026-04-27 11:50 26.26725 50.63420 20 ft 8 kts 302°
2026-04-27 11:51 26.26755 50.63367 20 ft 8 kts 302°
2026-04-27 11:51 26.26785 50.63316 20 ft 7 kts 303°
2026-04-27 11:51 26.26843 50.63216 20 ft 6 kts 302°
2026-04-27 11:52 26.26865 50.63179 20 ft 5 kts 304°
2026-04-27 11:52 26.26892 50.63134 20 ft 7 kts 303°
2026-04-27 11:52 26.26909 50.63103 20 ft 2 kts 301°
2026-04-27 11:52 26.26919 50.63085 20 ft 0 kts 301°
2026-04-27 11:53 26.26922 50.63080 20 ft 1 kts 301°
2026-04-27 11:53 26.26927 50.63072 20 ft 0 kts 303°
2026-04-27 11:55 26.26929 50.63067 20 ft 1 kts 303°
2026-04-27 11:55 26.26940 50.63049 20 ft 3 kts 302°
2026-04-27 11:55 26.26956 50.63019 20 ft 4 kts 302°
2026-04-27 11:55 26.26965 50.62999 20 ft 2 kts 276°
2026-04-27 11:56 26.26960 50.62980 20 ft 2 kts 233°
2026-04-27 11:56 26.26938 50.62961 20 ft 4 kts 212°
2026-04-27 11:56 26.26925 50.62952 20 ft 1 kts 212°
2026-04-27 11:56 26.26913 50.62943 20 ft 0 kts 212°
2026-04-27 11:57 26.26905 50.62938 20 ft 1 kts 213°
2026-04-27 11:57 26.26893 50.62929 20 ft 2 kts 213°
2026-04-27 11:57 26.26889 50.62926 20 ft 0 kts 213°
2026-04-27 11:57 26.26887 50.62925 20 ft 0 kts 213°